Regional Weather Roundup
Issued by NWS

Home | Current Version | Previous Version | Text Only | Print | Product List | Glossary Off
Versions: 1 2 3 4 5 6 7 8 9 10 11 12 13 14 15 16 17 18 19 20 21 22 23 24 25 26 27 28 29 30 31 32 33 34 35 36 37 38 39 40 41 42 43 44 45 46 47 48 49 50

000
ASUS43 KIND 190459
RWRIN

WEATHER ROUNDUP FOR INDIANA
NATIONAL WEATHER SERVICE INDIANAPOLIS IN
100 AM EDT FRI SEP 19 2014

NOTE: "FAIR" INDICATES FEW OR NO CLOUDS BELOW 12,000 FEET WITH NO
SIGNIFICANT WEATHER AND/OR OBSTRUCTIONS TO VISIBILITY.

* - STATION DOES NOT REPORT WEATHER SUCH AS PRECIPITATION OR FOG.

+ - STATION NOT QUALITY CONTROLLED BY THE NATIONAL WEATHER SERVICE.
    USE DATA WITH CAUTION...ESPECIALLY DEWPOINT AND RELATIVE
    HUMIDITY OBSERVATIONS.

INZ001>003-010>013-019-020-190600-
NORTHWEST INDIANA

CITY           SKY/WX    TMP DP  RH WIND       PRES   REMARKS
KNOX *+        CLEAR     49  47  93 CALM      30.15S
RENSSELAER +   CLEAR     52  52 100 NE3       30.15S
VALPARAISO     CLEAR     53  50  89 E5        30.17R

$$

LMZ046-743>745-190600-
SOUTHERN LAKE MICHIGAN

STATION/POSITION TIME  TEMP WIND        PRES
                       AIR  DIR/SP/G
                 (UTC) (F)  (DEG/KT/KT) (MB)
MICHIGAN CITY    0400   58   70/  9/ 11   N/A

$$

INZ004-005-014>016-021>024-190600-
NORTH CENTRAL INDIANA

CITY           SKY/WX    TMP DP  RH WIND       PRES   REMARKS
GOSHEN         CLEAR     55  50  83 E8        30.18S
SOUTH BEND     CLEAR     58  51  78 E6        30.19R
WARSAW +       CLEAR     54  50  87 E6        30.18R

$$

INZ006>009-017-018-025>027-190600-
NORTHEAST INDIANA

CITY           SKY/WX    TMP DP  RH WIND       PRES   REMARKS
ANGOLA *+      CLEAR     54  52  94 E7        30.20S
FORT WAYNE     PTCLDY    51  47  86 E3        30.19R

$$

INZ028-029-035-036-043>045-051>053-190600-
WEST CENTRAL INDIANA

CITY           SKY/WX    TMP DP  RH WIND       PRES   REMARKS
GREENCASTLE +  CLEAR     52  48  87 CALM      30.13F
LAFAYETTE      CLEAR     52  50  93 CALM      30.14R
TERRE HAUTE    CLEAR     52  49  89 CALM      30.12S

$$

INZ030>032-037>040-046>048-054>057-064-065-190600-
CENTRAL INDIANA

CITY           SKY/WX    TMP DP  RH WIND       PRES   REMARKS
FRANKFORT +    CLEAR     51  49  92 E3        30.15S
INDIANAPOLIS   CLEAR     59  48  67 E7        30.13S
-EAGLE CREEK   CLEAR     56  48  74 CALM      30.13S
KOKOMO *+      CLEAR     54  46  76 E8        30.16S
MT COMFORT *+  CLEAR     48  46  93 E6        30.15S
SHELBYVILLE    CLEAR     53  48  83 E7        30.13S

$$

INZ033-034-041-042-049-050-058-059-190600-
EAST CENTRAL INDIANA

CITY           SKY/WX    TMP DP  RH WIND       PRES   REMARKS
MUNCIE         CLEAR     51  47  86 E6        30.17R

$$

INZ060-061-067>069-081>083-085>088-190600-
SOUTHWEST INDIANA

CITY           SKY/WX    TMP DP  RH WIND       PRES   REMARKS
EVANSVILLE     CLEAR     58  52  80 NE6       30.09S

$$

INZ062-063-066-070>080-084-089>092-190600-
SOUTH CENTRAL AND SOUTHEAST INDIANA

CITY           SKY/WX    TMP DP  RH WIND       PRES   REMARKS
BLOOMINGTON    CLEAR     48  47  96 CALM      30.13R

$$



USA.gov is the U.S. government's official web portal to all federal, state and local government web resources and services.